User: anonymous   Login
Location: Taipo
(41.0000°S, 175.9500°E)
Time: 00:56:29
(UTC+00:00)
Language:

Cosmos 883 Rocket - Orbit

View from above orbital plane
View from above orbital plane
View from above satellite
View from above satellite

Ground track
Ground track

The orbit data is extracted from the following two-line orbital elements,

1 09613U 76122B   24168.95391805  .00000067  00000-0  51719-4 0  9998
2 09613  82.9548  53.1741 0029458 325.6492  34.2760 13.77624491387067
Epoch (UTC): 16 June 2024 22:53:38
Eccentricity: 0.0029458
inclination: 82.9548°
perigee height: 950 km
apogee height: 994 km
right ascension of ascending node: 53.1741°
argument of perigee: 325.6492°
revolutions per day: 13.77624491
mean anomaly at epoch: 34.2760°
orbit number at epoch: 38706

The dashed part of the orbit path shows where the satellite is in the earth's shadow,  

DLR